Location: アルンシュタイン
(50.0000°N, 10.0000°E)
Time: 21:29:22
(UTC+02:00)

Oscar 19 - Pass Details

Date: 02 February 2022
Orbit: 774 x 789 km, 98.8° (Epoch: 27 May)

Event Time Altitude Azimuth Distance (km) Brightness Sun altitude
Rises 04:44:28 0° 9° (N) 3,286 14.1 -30.3°
Reaches altitude 10° 04:46:57 10° 0° (N) 2,351 13.2 -29.9°
Enters shadow 04:47:42 14° 356° (N) 2,090 12.9 -29.8°
